Weather History for St. Petersburg, FL

Change the Weather History Date:

Friday, November 23, 2012

  Actual Average Record
Temperature  
Mean Temperature 64 °F -  
Max Temperature 70 °F 75 °F 85 °F (1958)
Min Temperature 57 °F 60 °F 39 °F (1956)
Degree Days  
Heating Degree Days 2    
Growing Degree Days 14 (Base 50)    
Moisture  
Dew Point 46 °F    
Average Humidity 55    
Maximum Humidity 81    
Minimum Humidity 36    
Precipitation  
Precipitation 0.00 in - - ()
Sea Level Pressure  
Sea Level Pressure 30.15 in    
Wind  
Wind Speed 8 mph (North)    
Max Wind Speed 15 mph    
Max Gust Speed -    
Visibility 10 miles    
Events      
Averages and records for this station are not official NWS values.
T = Trace of Precipitation, MM = Missing Value Source: NWS Daily Summary

Daily Weather History Graph

Daily Weather History Graph

Search for Another Location

Airport:

Trip Planner

Search our weather history database for the weather conditions in past years. The results will help you decide how hot, cold, wet, or windy it might be!

Date:

Astronomy

Nov. 23, 2012 Rise Set
Actual Time 6:58 AM EST 5:35 PM EST
Civil Twilight 6:33 AM EST 6:00 PM EST
Nautical Twilight 6:04 AM EST 6:29 PM EST
Astronomical Twilight 5:36 AM EST 6:57 PM EST
Moon 2:31 PM EST (11/23) 2:36 AM EST (11/23)
Length of Visible Light 11h 27m
Length of Day
10h 37m
Waxing Gibbous, 79% of the Moon is Illuminated
Nov 23
Waxing Gibbous
Nov 28
Full
Dec 6
Last Quarter
Dec 13
New
Dec 20
First Quarter

Hourly Weather History & Observations

Time (EST) Temp. Dew Point Humidity Pressure Visibility Wind Dir Wind Speed Gust Speed Precip Events Conditions
12:53 AM 61.0 °F 43.0 °F 52% 30.17 in 10.0 mi ENE 15.0 mph - N/A   Clear
1:53 AM 60.1 °F 44.1 °F 55% 30.16 in 10.0 mi NE 6.9 mph - N/A   Clear
2:53 AM 59.0 °F 45.0 °F 60% 30.16 in 10.0 mi NNE 3.5 mph - N/A   Clear
3:53 AM 60.1 °F 45.0 °F 57% 30.15 in 10.0 mi NE 8.1 mph - N/A   Clear
4:53 AM 59.0 °F 46.0 °F 62% 30.15 in 10.0 mi NNE 4.6 mph - N/A   Clear
5:53 AM 57.0 °F 46.9 °F 69% 30.16 in 10.0 mi NNE 5.8 mph - N/A   Clear
6:53 AM 57.0 °F 45.0 °F 64% 30.18 in 10.0 mi North 4.6 mph - N/A   Clear
7:53 AM 57.9 °F 45.0 °F 62% 30.20 in 10.0 mi North 6.9 mph - N/A   Clear
8:53 AM 61.0 °F 46.0 °F 58% 30.22 in 10.0 mi NNE 5.8 mph - N/A   Clear
9:53 AM 64.9 °F 41.0 °F 42% 30.23 in 10.0 mi NNE 4.6 mph - N/A   Clear
10:53 AM 64.9 °F 44.1 °F 47% 30.22 in 10.0 mi East 8.1 mph - N/A   Clear
11:53 AM 66.9 °F 43.0 °F 42% 30.20 in 10.0 mi NE 11.5 mph - N/A   Clear
12:53 PM 69.1 °F 41.0 °F 36% 30.16 in 10.0 mi NNE 8.1 mph - N/A   Clear
1:53 PM 70.0 °F 43.0 °F 38% 30.13 in 10.0 mi North 10.4 mph - N/A   Clear
2:53 PM 70.0 °F 43.0 °F 38% 30.11 in 10.0 mi North 9.2 mph - N/A   Clear
3:53 PM 70.0 °F 42.1 °F 36% 30.11 in 10.0 mi North 10.4 mph - N/A   Clear
4:53 PM 69.1 °F 42.1 °F 38% 30.12 in 10.0 mi North 6.9 mph - N/A   Clear
5:53 PM 66.0 °F 43.0 °F 43% 30.12 in 10.0 mi NNW 6.9 mph - N/A   Clear
6:53 PM 64.0 °F 46.9 °F 54% 30.12 in 10.0 mi WNW 3.5 mph - N/A   Clear
7:53 PM 64.0 °F 50.0 °F 60% 30.13 in 10.0 mi West 3.5 mph - N/A   Clear
8:53 PM 63.0 °F 51.1 °F 65% 30.13 in 10.0 mi West 3.5 mph - N/A   Clear
9:53 PM 63.0 °F 54.0 °F 72% 30.13 in 10.0 mi Calm Calm - N/A   Clear
10:53 PM 60.1 °F 53.1 °F 78% 30.12 in 10.0 mi West 3.5 mph - N/A   Clear
11:53 PM 61.0 °F 55.0 °F 81% 30.11 in 10.0 mi WSW 3.5 mph - N/A   Clear